Flag for U.S.A. Weather past 2 weeks in Metairie, Louisiana, U.S.A.

Now
68 °F

Scattered clouds.


Feels Like: 68 °F
Forecast: 58 / 74 °F
Wind: 15 mph from Northeast

Location: New Orleans International Airport


UV Index: 7 (High)

Visibility: 10 mi


Pressure: 30.07 "Hg

Humidity: 68%

Dew point: 57 °F

Location of MetairieLocation

Historic Weather in Metairie

°F

Metairie temperature yesterday

Maximum temperature yesterday: 66 °F (at 12:53 PM)
Minimum temperature yesterday: 51 °F (at 12:53 AM)
Average temperature yesterday: 61 °F

Past Weeks' High & Low Weather Summary

 TemperatureHumidityPressure
High82 °F (Apr 13, 12:53 PM)100% (Apr 6, 7:03 AM)30.27 "Hg (Apr 6, 7:03 AM)
Low47 °F (Apr 15, 7:53 AM)32% (Apr 9, 3:53 PM)29.67 "Hg (Apr 7, 6:53 AM)
Average65 °F75%30.03 "Hg
* Reported Apr 3 6:53 PM — Apr 18 6:53 PM, Metairie, Weather by CustomWeather, © 2014

Note: Actual official high and low records may vary slightly from our data, if they occured in-between our weather recording intervals... More about our weather records

Advertising

Historic Weather Conditions — Data for Previous 24 hours

 ConditionsComfort  
Time TempWeatherWind HumidityBarometerVisibility
6:53 PM
Apr 18
68 °FScattered clouds.15 mph68%30.07 "Hg10 mi
5:53 PM70 °FBroken clouds.15 mph66%30.07 "Hg10 mi
4:53 PM73 °FScattered clouds.14 mph59%30.07 "Hg10 mi
3:53 PM73 °FScattered clouds.16 mph62%30.06 "Hg10 mi
2:53 PM74 °FPassing clouds.18 mph60%30.06 "Hg10 mi
1:53 PM73 °FScattered clouds.18 mph64%30.07 "Hg10 mi
12:53 PM72 °FScattered clouds.16 mph66%30.09 "Hg10 mi
11:53 AM69 °FBroken clouds.14 mph73%30.10 "Hg10 mi
10:53 AM68 °FBroken clouds.12 mph78%30.11 "Hg10 mi
9:53 AM66 °FPartly sunny.12 mph81%30.11 "Hg10 mi
8:53 AM64 °FPartly sunny.13 mph90%30.11 "Hg10 mi
7:53 AM62 °FMostly cloudy.10 mph93%30.11 "Hg10 mi
6:53 AM61 °FDrizzle. Fog.9 mph97%30.10 "Hg2 mi
5:53 AM62 °FOvercast.12 mph90%30.07 "Hg10 mi
4:53 AM63 °FLight rain. Overcast.9 mph90%30.07 "Hg10 mi
3:53 AM63 °FOvercast.8 mph90%30.06 "Hg10 mi
2:53 AM63 °FMostly cloudy.10 mph87%30.06 "Hg10 mi
1:53 AM64 °FMostly cloudy.14 mph84%30.09 "Hg10 mi
12:53 AM64 °FPassing clouds.10 mph84%30.10 "Hg10 mi
11:53 PM
Apr 17
64 °FOvercast.13 mph84%30.12 "Hg10 mi
10:53 PM64 °FOvercast.13 mph84%30.12 "Hg10 mi
9:53 PM64 °FOvercast.14 mph81%30.11 "Hg10 mi
8:53 PM64 °FOvercast.12 mph84%30.13 "Hg10 mi
Weather by CustomWeather, © 2014

See weather overview